This demonstration page uses our WeatherBlox Daily Observations layout. Learn more.

Left ArrowRight Arrow

39.51506, -84.39828

Hourly Observations for April 9, 2020

Temp ( °F °C ) Dew Point ( °F °C ) Humidity (%) Winds ( mph kmh ) Pressure ( in mb ) Visibility ( mi km ) Precip ( " mm )
12:15 am 00:15 Partly Cloudy 56 13.6 55 12.8 95 95 WSW 6 9 29.57 1001 10 16.0934 0 0
12:35 am 00:35 Clear 56 13.4 55 12.9 97 97 WSW 8 13 29.57 1001 10 16.0934 0 0
12:55 am 00:55 Clear 56 13.5 55 12.9 96 96 SW 7 11 29.57 1001 10 16.0934 0 0
1:15 am 01:15 Clear 56 13.5 55 12.9 96 96 WSW 10 17 29.59 1002 10 16.0934 0 0
1:35 am 01:35 Clear 56 13.5 55 12.9 96 96 WSW 10 17 29.6 1002 10 16.0934 0 0
1:55 am 01:55 Partly Cloudy 56 13.1 55 12.5 96 96 WSW 6 9 29.6 1002 10 16.0934 0 0
2:15 am 02:15 Cloudy 56 13.5 55 12.6 94 94 W 3 6 29.6 1002 10 16.0934 0 0
2:35 am 02:35 Mostly Cloudy 56 13.2 55 12.5 96 96 WSW 6 9 29.6 1002 10 16.0934 0 0
2:55 am 02:55 Cloudy 56 13.4 55 12.7 96 96 WSW 7 11 29.61 1003 10 16.0934 0 0
3:15 am 03:15 Cloudy 56 13.5 54 12.3 93 93 W 7 11 29.62 1003 10 16.0934 0 0
3:35 am 03:35 Cloudy 56 13.3 53 11.6 90 90 WNW 8 13 29.62 1003 10 16.0934 0 0
3:55 am 03:55 Cloudy 55 13 52 11 88 88 NNW 9 15 29.63 1003 10 16.0934 0 0
4:15 am 04:15 Clear 53 11.8 50 9.8 88 88 WNW 6 9 29.63 1004 10 16.0934 0 0
4:35 am 04:35 Partly Cloudy 53 11.5 48 9.1 85 85 WNW 15 24 29.65 1004 10 16.0934 0 0
4:55 am 04:55 Cloudy 52 11.3 47 8.6 84 84 WNW 15 24 29.66 1004 10 16.0934 0 0
5:15 am 05:15 Cloudy 52 10.9 46 7.5 80 80 WNW 15 24 29.66 1004 10 16.0934 0 0
5:35 am 05:35 Mostly Cloudy 51 10.5 45 7.3 81 81 WNW 12 19 29.67 1005 10 16.0934 0 0
5:55 am 05:55 Mostly Cloudy 50 10.2 43 6.3 77 77 WNW 16 26 29.68 1005 10 16.0934 0 0
6:15 am 06:15 Mostly Cloudy 50 9.8 43 6.1 78 78 W 15 24 29.69 1005 10 16.0934 0 0
6:35 am 06:35 Partly Cloudy 49 9.5 42 5.5 76 76 WNW 14 22 29.7 1006 10 16.0934 0 0
6:55 am 06:55 Mostly Cloudy 49 9.3 41 5.2 76 76 WNW 16 26 29.71 1006 10 16.0934 0.01 0.254
7:15 am 07:15 Sunny 48 8.7 39 4.1 73 73 WNW 16 26 29.73 1007 N/A 0 0
7:35 am 07:35 Sunny 47 8.4 39 4.1 75 75 W 16 26 29.74 1007 10 16.0934 0 0
7:55 am 07:55 Partly Cloudy 47 8.2 38 3.1 71 71 WNW 15 24 29.74 1007 10 16.0934 0 0
8:15 am 08:15 Sunny 46 7.9 34 1.2 63 63 W 14 22 29.75 1008 10 16.0934 0 0
8:35 am 08:35 Sunny 46 7.9 33 0.4 59 59 WNW 17 28 29.76 1008 10 16.0934 0 0
8:55 am 08:55 Sunny 46 8 32 -0.2 57 57 WNW 15 24 29.76 1008 10 16.0934 0 0
9:15 am 09:15 Sunny 47 8.4 31 -0.4 54 54 NW 23 37 29.77 1008 10 16.0934 0 0
9:35 am 09:35 Sunny 48 8.7 31 -0.7 52 52 W 21 33 29.77 1008 10 16.0934 0 0
9:55 am 09:55 Sunny 48 8.9 31 -0.5 52 52 NW 17 28 29.77 1008 10 16.0934 0 0
10:15 am 10:15 Sunny 49 9.2 31 -0.3 52 52 WNW 16 26 29.78 1008 10 16.0934 0 0
10:35 am 10:35 Sunny 49 9.5 31 -0.7 49 49 NW 22 35 29.79 1009 10 16.0934 0 0
10:55 am 10:55 Partly Cloudy 50 9.8 30 -1.1 47 47 WNW 18 30 29.79 1009 10 16.0934 0 0
11:15 am 11:15 Partly Cloudy 50 10 30 -1.3 46 46 WNW 17 28 29.79 1009 10 16.0934 0 0
11:35 am 11:35 Sunny 51 10.4 30 -1.2 45 45 W 17 28 29.79 1009 10 16.0934 0 0
11:55 am 11:55 Sunny 51 10.3 29 -1.6 44 44 W 14 22 29.79 1009 10 16.0934 0 0
12:15 pm 12:15 Sunny 51 10.6 28 -2.1 41 41 W 17 28 29.78 1008 10 16.0934 0 0
12:35 pm 12:35 Sunny 52 11.1 29 -1.4 42 42 W 16 26 29.78 1008 10 16.0934 0 0
12:55 pm 12:55 Sunny 52 11 29 -1.7 41 41 W 18 30 29.78 1008 10 16.0934 0 0
1:15 pm 13:15 Sunny 52 11.1 29 -1.6 42 42 W 17 28 29.77 1008 10 16.0934 0 0
1:35 pm 13:35 Sunny 53 11.4 27 -2.8 37 37 W 21 33 29.77 1008 10 16.0934 0 0
1:55 pm 13:55 Sunny 53 11.8 25 -3.7 34 34 W 20 31 29.76 1008 10 16.0934 0 0
2:35 pm 14:35 Sunny 54 12.3 23 -5 30 30 W 23 37 29.75 1008 10 16.0934 0 0
2:55 pm 14:55 Partly Cloudy 54 12.3 24 -4.5 31 31 W 16 26 29.75 1008 10 16.0934 0 0
3:15 pm 15:15 Sunny 55 12.6 23 -4.9 29 29 W 21 33 29.75 1008 10 16.0934 0 0
3:35 pm 15:35 Partly Cloudy 53 11.6 21 -6 29 29 W 23 37 29.75 1008 10 16.0934 0 0
3:55 pm 15:55 Mostly Cloudy 54 12 22 -5.7 29 29 WSW 28 44 29.74 1007 10 16.0934 0 0
4:15 pm 16:15 Mostly Cloudy 52 10.9 21 -6.1 30 30 W 22 35 29.74 1007 10 16.0934 0 0
4:35 pm 16:35 Cloudy 51 10.6 22 -5.7 32 32 W 22 35 29.75 1007 10 16.0934 0 0
4:55 pm 16:55 Cloudy 50 10 22 -5.6 33 33 W 23 37 29.76 1008 10 16.0934 0 0
5:15 pm 17:15 Mostly Cloudy 50 10 21 -6 32 32 WNW 21 33 29.77 1008 10 16.0934 0 0
5:35 pm 17:35 Cloudy 49 9.7 24 -4.7 36 36 W 23 37 29.77 1008 10 16.0934 0 0
5:55 pm 17:55 Cloudy 48 9.1 25 -4 40 40 WNW 18 30 29.78 1009 10 16.0934 0 0
6:15 pm 18:15 Cloudy 48 8.7 27 -3 44 44 W 17 28 29.78 1009 10 16.0934 0 0
6:35 pm 18:35 Cloudy 48 8.7 26 -3.1 44 44 WNW 17 28 29.78 1009 10 16.0934 0 0
6:55 pm 18:55 Cloudy 47 8.3 27 -3 45 45 WNW 18 30 29.79 1009 10 16.0934 0 0
7:15 pm 19:15 Cloudy 46 7.6 28 -2.2 50 50 WNW 17 28 29.8 1009 10 16.0934 0 0
7:35 pm 19:35 Cloudy 44 6.6 31 -0.8 60 60 NW 16 26 29.82 1010 10 16.0934 0 0
7:55 pm 19:55 Cloudy with Light Rain 41 5 34 1 76 76 WNW 20 31 29.84 1011 10 16.0934 0 0
8:15 pm 20:15 Cloudy with Light Rain 39 4 34 1.1 82 82 WNW 24 39 29.86 1011 7 11.26538 0 0
8:35 pm 20:35 Cloudy 38 3.3 34 1.2 86 86 W 10 17 29.84 1010 10 16.0934 0 0
8:55 pm 20:55 Cloudy 39 3.7 34 1.1 83 83 W 14 22 29.86 1011 10 16.0934 0 0
9:15 pm 21:15 Partly Cloudy 39 3.8 34 1.1 83 83 WSW 10 17 29.85 1011 10 16.0934 0 0
9:35 pm 21:35 Mostly Cloudy 38 3.6 34 1.2 85 85 W 6 9 29.86 1011 10 16.0934 0 0
9:55 pm 21:55 Cloudy 39 3.8 34 1.3 84 84 W 7 11 29.85 1011 10 16.0934 0 0
10:15 pm 22:15 Cloudy 39 4 35 1.4 83 83 WSW 7 11 29.86 1011 10 16.0934 0 0
10:35 pm 22:35 Cloudy 40 4.2 35 1.6 83 83 WSW 9 15 29.86 1011 10 16.0934 0 0
10:55 pm 22:55 Cloudy 41 4.8 31 -0.3 70 70 W 12 19 29.84 1011 10 16.0934 0 0
11:15 pm 23:15 Partly Cloudy 40 4.6 31 -0.7 69 69 WSW 9 15 29.84 1011 10 16.0934 0 0
11:35 pm 23:35 Cloudy 40 4.2 31 -0.6 71 71 WSW 13 20 29.85 1011 10 16.0934 0 0
11:55 pm 23:55 Cloudy 39 4 32 0 75 75 W 9 15 29.85 1011 10 16.0934 0 0

Powered by AerisWeather